Tracking 19199 objects as of 24-Jun-2018
HD Live streaming from Space Station
objects crossing your sky now

FENGYUN 1C DEB

Track FENGYUN 1C DEB now!
10-day predictions


NORAD ID: 37710
Int'l Code: 1999-025EMB
Perigee: 855.7 km
Apogee: 1,256.1 km
Inclination: 99.2 °
Period: 106.2 minutes
Semi major axis: 7426 km
RCS: 0.0081 m2 (small)
Launch date: May 10, 1999
Source: People's Republic of China (PRC)
Launch site: Taiyaun Space Center, China (TSC)

Note: This is SATELLITE DEBRIS
aabbcc
Your satellite tracking list
Your tracking list is empty




NASA's NSSDC Master Catalog

Two Line Element Set (TLE):
1 37710U 99025EMB 18174.55157618  .00000358  00000-0  44993-3 0  9990
2 37710  99.2205 285.3506 0269522 313.3001 107.7022 13.56410146504349
Source of the keplerian elements: AFSPC